Theta_e
319 318 317 317 316 315 315 314 313 311 309 308 308 308 308 307 307 307 307 308 308 308 308 308 308 307 307 307 307 308 307 306 306 306 306 306 305 304 303 303 302 302
317 316 316 316 315 314 313 312 311 310 308 307 307 307 307 306 306 306 306 307 307 307 307 307 307 307 306 306 306 306 307 306 305 305 305 305 304 303 302 302 302 301
315 315 315 314 314 313 312 311 310 308 308 307 306 306 306 306 305 305 305 306 306 306 306 306 306 306 306 306 306 306 306 306 305 305 304 304 304 303 302 301 301 301
314 314 314 313 313 312 310 310 308 307 307 307 306 306 305 305 305 305 305 305 305 306 306 306 305 305 305 305 305 305 305 305 305 304 304 304 303 302 301 301 300 299
313 312 312 312 312 311 310 309 308 307 307 306 306 305 305 304 304 304 305 304 305 305 305 305 305 305 305 305 305 305 305 304 304 304 304 304 303 302 301 300 299 299
312 312 311 311 311 310 309 308 307 307 306 305 305 305 304 304 304 303 304 304 304 304 305 305 305 305 305 304 304 304 304 304 304 304 303 303 302 302 301 300 299 299
312 312 311 311 310 309 308 307 307 306 306 305 305 304 303 303 303 303 303 303 303 304 304 304 305 305 304 304 304 304 303 304 304 303 303 302 301 301 301 300 299 299
311 311 311 310 309 308 307 307 306 306 305 305 305 304 303 302 302 302 302 302 303 303 304 304 304 304 304 304 304 304 303 303 303 303 302 302 301 301 300 300 299 299
311 310 310 309 308 307 307 306 305 305 305 305 304 303 303 302 301 300 300 300 301 303 304 304 304 304 304 304 304 304 303 303 303 302 301 301 301 300 300 300 299 298
310 309 308 307 307 306 306 305 305 305 304 304 303 303 302 301 300 300 299 298 299 301 303 304 304 304 304 303 303 303 302 302 302 301 301 301 300 300 300 299 299 298
309 308 307 307 307 306 306 305 305 305 305 304 303 302 301 301 300 298 297 296 296 298 302 304 304 304 303 303 303 302 302 302 301 301 301 300 300 299 299 299 299 298
308 308 307 307 306 306 305 305 305 305 304 304 303 302 301 300 299 297 295 294 294 296 299 302 303 303 303 303 302 302 302 301 301 301 301 300 300 299 298 298 299 299
308 307 307 306 306 305 305 305 304 304 303 303 302 301 300 298 297 295 294 294 294 295 297 300 302 303 303 303 302 302 301 301 301 301 300 300 299 299 297 297 297 298
307 307 306 306 306 305 305 305 304 304 303 303 303 301 299 298 295 293 293 294 295 295 297 298 300 301 302 302 302 302 301 301 300 300 300 300 299 299 298 297 297 297
307 307 306 306 305 305 305 305 304 304 304 303 303 301 300 299 296 293 293 294 295 296 297 297 299 300 300 301 301 302 301 301 300 300 300 300 299 299 298 298 297 296
307 306 306 305 305 304 304 304 304 304 304 303 302 301 300 299 297 294 293 293 294 295 296 297 298 298 299 300 300 301 301 301 300 300 299 299 299 299 298 298 297 296
306 306 305 304 304 304 304 304 304 304 303 303 302 301 300 297 295 294 293 293 294 295 296 297 297 298 298 299 300 301 301 301 300 299 299 299 299 299 298 298 297 296
306 305 305 304 304 304 304 304 303 303 303 302 302 301 299 297 295 293 292 292 293 294 295 296 297 298 299 299 300 300 300 300 300 300 299 298 298 299 299 298 297 296
305 305 304 304 304 304 304 304 303 303 303 302 302 301 299 299 297 294 292 292 292 293 294 295 296 297 298 299 299 300 300 300 300 300 299 297 297 298 299 298 296 296
304 304 304 304 304 304 304 304 303 303 303 303 302 301 300 300 299 296 292 291 292 292 292 294 295 296 297 298 299 299 299 299 299 299 299 297 297 299 299 297 296 296
304 304 304 303 304 304 304 303 303 303 303 303 302 302 301 300 300 298 295 292 291 292 292 292 293 295 297 298 298 298 298 298 298 299 299 298 298 298 298 297 296 296
303 303 303 304 304 303 303 302 302 302 302 302 302 302 301 301 300 300 299 297 293 291 291 292 292 293 294 296 297 297 297 297 297 298 298 298 298 298 298 297 297 296
303 303 303 303 303 303 302 302 302 302 301 301 301 301 302 302 301 300 300 299 295 292 291 291 291 291 292 293 294 294 294 294 295 296 297 298 298 298 298 297 297 297
303 303 303 303 303 303 302 302 302 301 301 301 300 300 301 301 301 301 300 298 295 293 293 291 291 291 291 291 291 291 291 291 292 293 295 297 297 297 297 297 297 296
302 303 303 303 302 302 302 301 301 301 300 300 299 298 298 298 298 298 298 296 295 295 295 294 292 291 290 290 290 290 290 291 291 292 293 295 295 296 296 296 296 295
302 302 303 303 302 302 301 301 301 301 300 300 299 298 298 298 297 296 296 296 296 297 298 297 295 292 291 290 290 290 291 291 291 291 292 293 294 295 295 295 294 294
Wind_Speed
17 18 19 19 20 19 17 15 14 14 13 13 14 15 16 16 16 17 19 20 20 20 19 19 18 18 18 18 18 18 19 19 20 20 21 22 23 23 23 24 24 24
16 17 17 18 18 17 15 15 14 14 14 14 15 16 16 17 17 17 18 19 20 20 19 18 17 17 18 18 18 18 18 19 20 20 20 21 22 23 23 23 23 24
15 15 16 17 18 17 14 14 15 15 15 15 15 16 17 17 18 18 18 18 19 19 18 17 16 16 17 18 18 19 18 19 19 19 19 20 21 22 22 22 22 22
13 12 13 17 18 17 16 16 17 16 16 16 16 16 16 17 18 18 18 17 17 17 18 18 17 16 17 18 18 19 19 18 18 18 19 19 19 20 21 21 22 22
14 15 16 19 19 17 17 18 17 17 17 17 16 16 17 17 17 17 17 17 16 16 17 17 18 17 17 17 18 19 18 18 17 17 19 19 19 19 19 20 22 23
18 19 19 19 18 18 18 18 18 18 17 17 17 17 16 16 16 16 16 17 16 16 16 17 17 17 16 17 17 18 18 17 16 17 18 18 18 18 17 19 21 22
20 20 19 19 19 19 19 19 18 18 18 18 18 17 16 16 16 15 15 16 16 16 17 17 17 17 16 16 17 17 17 16 16 17 18 17 17 17 17 17 19 19
21 21 21 21 21 21 20 19 19 18 18 18 18 17 17 17 16 15 14 14 15 16 17 18 18 17 16 15 16 16 16 16 16 17 17 17 16 16 15 15 17 17
23 22 21 21 21 21 20 20 19 19 19 18 17 16 16 16 16 15 13 13 15 16 16 17 17 17 17 16 16 15 15 15 16 16 16 16 16 16 14 14 15 17
23 23 22 22 22 21 20 20 19 19 19 19 18 17 15 15 14 13 13 13 14 15 15 16 16 16 17 17 16 16 15 14 15 15 15 15 15 16 15 14 16 18
23 23 23 23 23 22 22 21 20 19 19 19 20 20 17 15 14 13 13 13 14 14 14 15 15 15 16 17 17 16 15 14 14 13 14 15 15 15 16 15 16 17
24 24 24 24 23 23 22 21 20 18 18 18 18 18 16 15 14 13 13 14 15 15 14 14 14 14 15 15 15 15 14 14 13 13 13 14 14 14 15 16 16 16
25 25 24 24 24 23 22 21 20 18 18 17 15 15 14 14 14 14 14 15 16 16 15 14 14 14 14 14 13 14 14 13 13 12 12 11 11 13 14 15 16 17
26 25 25 24 24 23 23 22 21 20 19 18 16 15 15 15 15 15 16 16 16 16 16 15 15 14 14 13 12 12 12 12 13 12 10 10 10 12 12 12 15 17
26 26 25 24 24 24 23 23 22 21 21 20 19 18 16 15 14 15 16 16 15 15 15 15 15 15 13 12 12 11 11 12 13 12 10 9 9 10 11 11 15 17
26 26 25 24 24 23 23 22 22 21 21 21 21 19 16 14 14 14 15 15 15 14 14 15 14 13 12 11 11 10 10 11 12 12 11 9 8 9 10 12 14 18
27 27 26 26 25 24 24 23 22 22 21 21 20 18 16 14 14 15 15 14 14 14 14 14 13 12 10 10 10 10 10 10 11 11 10 10 9 7 8 11 15 18
28 28 27 26 26 25 24 24 23 23 21 21 19 17 16 16 16 16 16 15 15 14 13 13 12 11 10 10 10 10 10 10 10 9 9 10 11 7 6 10 16 17
28 28 27 26 25 24 24 23 23 23 22 21 19 17 16 16 16 16 17 17 16 15 14 12 11 10 10 9 9 8 8 8 9 9 8 11 12 8 6 11 16 16
29 29 28 26 26 25 25 24 24 23 22 21 20 19 18 17 15 15 17 18 17 16 15 13 11 9 8 8 8 8 8 9 11 11 10 12 15 10 6 10 16 15
29 29 28 27 27 26 26 25 24 23 22 21 20 19 18 17 15 13 15 16 17 16 16 16 14 10 7 7 9 8 7 8 10 11 10 11 14 12 7 9 15 15
30 30 29 28 28 27 26 25 24 23 22 21 20 19 18 17 14 12 11 13 15 16 17 17 15 13 10 9 9 8 7 7 7 7 8 9 11 13 9 8 14 14
31 30 30 29 28 27 26 25 24 24 22 21 21 20 18 17 16 14 11 10 12 15 17 17 16 14 12 10 9 8 8 10 9 6 7 7 8 12 12 10 13 14
31 31 30 29 28 27 26 25 24 23 22 21 20 20 19 17 17 15 12 10 12 14 16 18 17 15 12 11 11 10 11 13 13 9 8 7 6 9 12 12 13 15
31 30 30 30 28 27 26 25 24 23 21 20 19 19 18 17 16 16 14 12 12 13 14 16 17 15 12 11 12 13 13 14 14 13 12 10 8 9 11 13 14 15
31 30 30 29 28 26 25 24 23 22 21 19 18 18 17 16 14 14 14 12 11 10 11 12 14 14 13 11 11 13 14 14 14 14 14 13 12 11 12 14 14 14
Wind_Direction
116 119 119 117 115 112 109 110 114 110 104 100 96 90 88 84 82 85 86 84 82 81 80 81 80 78 77 76 76 75 73 68 64 64 65 64 63 59 57 57 54 53
118 119 119 119 118 114 110 115 120 115 107 103 98 95 92 87 83 83 85 85 84 82 80 81 82 81 79 76 75 75 74 70 65 63 64 63 63 60 57 56 54 52
124 123 121 122 124 121 119 124 123 116 111 105 100 97 93 90 86 82 83 85 86 84 81 80 81 82 82 78 75 74 73 71 67 64 64 63 61 61 59 54 51 49
132 133 133 131 129 126 126 127 124 119 115 110 104 99 94 92 89 84 83 84 85 86 84 81 79 79 80 78 75 75 74 73 70 67 66 65 62 61 57 50 47 47
130 131 137 138 134 131 130 129 125 121 117 113 109 103 97 95 93 92 89 87 87 87 86 84 81 79 77 75 74 74 74 73 71 69 68 67 64 60 54 47 47 48
133 134 138 140 138 135 131 126 123 120 115 112 109 105 102 100 99 99 97 95 93 90 88 86 83 81 77 75 74 73 73 73 71 70 69 67 64 60 56 51 50 49
141 142 141 139 137 133 129 126 123 119 115 112 109 105 105 104 102 103 102 100 99 96 93 89 83 81 78 77 77 74 73 72 71 72 69 65 64 62 60 56 52 51
142 142 140 138 136 133 130 128 124 121 119 116 112 108 107 105 103 104 106 107 106 104 101 96 89 85 81 79 78 76 75 73 71 73 70 66 64 60 61 59 51 49
141 140 140 137 135 132 130 127 125 123 120 117 113 112 110 107 104 104 106 109 112 112 108 103 97 92 89 84 77 74 76 74 72 72 70 68 63 56 59 62 51 45
140 139 139 136 134 133 131 129 127 123 120 118 115 114 112 111 108 105 104 106 111 117 116 111 104 97 94 90 83 77 74 73 73 74 72 69 64 55 56 58 49 41
142 142 141 139 138 137 134 132 130 127 125 122 119 115 112 112 109 105 102 100 103 112 119 117 110 103 97 94 91 87 81 75 73 76 76 71 64 56 53 51 43 37
145 144 141 139 137 135 134 133 132 131 128 125 122 119 114 111 108 104 101 98 97 103 111 115 113 108 101 97 95 93 90 83 74 74 78 76 68 60 55 49 42 35
145 144 141 139 136 135 134 132 130 128 126 125 124 121 116 111 106 103 101 101 100 99 101 107 111 109 105 100 97 94 92 88 80 74 76 79 69 57 55 51 42 36
145 144 142 140 138 137 136 133 131 129 127 126 122 115 109 105 101 101 101 101 100 98 98 102 106 108 104 98 96 95 92 87 83 75 73 83 71 50 48 47 37 35
146 145 144 142 140 139 136 133 131 128 127 126 122 114 107 101 96 97 100 99 97 98 98 100 102 100 95 93 94 94 88 83 82 73 68 79 71 51 52 52 37 33
147 146 145 143 140 138 136 135 132 130 127 124 122 118 113 108 99 93 94 96 98 98 98 98 96 91 87 87 88 87 86 85 82 73 65 63 63 64 67 57 38 30
148 147 144 141 140 138 138 137 135 133 129 125 124 121 117 111 99 90 88 92 98 99 98 97 94 91 91 88 87 87 85 84 80 74 66 55 54 75 78 52 35 29
149 147 144 142 142 141 140 139 137 135 132 128 126 124 119 110 97 89 86 89 95 96 95 96 94 96 98 93 91 91 88 84 76 71 68 53 49 66 69 42 32 27
150 148 146 145 144 143 141 140 138 136 134 131 130 128 121 111 101 92 86 87 90 89 91 95 95 97 98 94 90 88 86 80 66 64 68 51 44 53 54 37 29 23
151 150 148 146 145 144 142 141 139 138 136 135 134 132 126 120 114 101 89 85 84 85 86 88 90 94 97 93 88 82 78 71 62 64 69 53 44 47 46 31 24 18
154 152 149 147 147 146 144 142 141 139 139 138 137 135 131 129 125 113 97 87 81 82 84 82 79 84 94 95 87 83 83 74 64 61 65 60 49 42 38 25 18 14
155 152 150 148 148 146 144 143 142 140 139 139 138 137 134 133 132 127 112 94 82 80 82 80 76 75 84 93 88 85 85 77 67 56 58 63 50 38 33 18 13 13
154 152 151 149 148 147 146 146 144 142 141 140 140 139 136 136 135 130 125 111 93 82 76 76 74 69 71 79 80 77 72 64 61 56 58 65 54 41 34 21 14 12
156 154 152 150 149 149 149 148 145 144 144 143 142 142 141 143 142 138 136 127 104 87 75 70 68 64 63 68 69 67 63 60 57 57 61 63 55 43 38 30 18 8
157 155 153 151 152 151 149 147 146 146 146 145 143 141 139 140 142 141 140 130 107 91 78 69 63 60 59 64 68 65 61 58 55 56 58 53 44 40 37 30 17 4
158 156 155 154 153 151 149 149 149 148 148 148 147 144 139 135 134 133 132 128 115 98 83 71 62 57 55 59 66 65 59 55 51 50 50 45 42 38 28 19 11 2